Weather History for Inverness, FL

Change the Weather History Date:

Thursday, February 7, 2013

  Actual Average (KOCF) Record (KOCF)
Temperature  
Mean Temperature 66 °F -  
Max Temperature 80 °F 68 °F 78 °F (2013)
Min Temperature 53 °F 44 °F 30 °F (2009)
Cooling Degree Days 2    
Growing Degree Days 16 (Base 50)    
Moisture  
Dew Point 60 °F    
Average Humidity 79    
Maximum Humidity 100    
Minimum Humidity 45    
Precipitation  
Precipitation 0.07 in - - ()
Sea Level Pressure  
Sea Level Pressure 29.99 in    
Wind  
Wind Speed 4 mph (South)    
Max Wind Speed 17 mph    
Max Gust Speed 26 mph    
Visibility 9 miles    
Events Fog , Rain , Thunderstorm    
Averages and records for this station are not official NWS values.
T = Trace of Precipitation, MM = Missing Value Source: NWS Daily Summary

Daily Weather History Graph

Daily Weather History Graph

Search for Another Location

Airport:

Trip Planner

Search our weather history database for the weather conditions in past years. The results will help you decide how hot, cold, wet, or windy it might be!

Date:

Astronomy

Feb. 07, 2013 Rise Set
Actual Time 7:13 AM EST 6:13 PM EST
Civil Twilight 6:49 AM EST 6:37 PM EST
Nautical Twilight 6:21 AM EST 7:06 PM EST
Astronomical Twilight 5:53 AM EST 7:33 PM EST
Moon 4:44 AM EST (2/7) 3:42 PM EST (2/7)
Length of Visible Light 11h 48m
Length of Day
10h 59m
Waning Crescent, 9% of the Moon is Illuminated
Feb 7
Waning Crescent
Feb 10
New
Feb 17
First Quarter
Feb 25
Full
Mar 4
Last Quarter

Hourly Weather History & Observations

Time (EST) Temp. Heat Index Dew Point Humidity Pressure Visibility Wind Dir Wind Speed Gust Speed Precip Events Conditions
12:15 AM 62.6 °F - 59.0 °F 88% 30.10 in 10.0 mi East 3.5 mph - N/A   Overcast
12:35 AM 62.6 °F - 59.0 °F 88% 30.10 in 10.0 mi Calm Calm - N/A   Scattered Clouds
12:55 AM 62.6 °F - 60.8 °F 94% 30.09 in 10.0 mi Calm Calm - N/A   Clear
1:15 AM 60.8 °F - 59.0 °F 94% 30.09 in 10.0 mi Calm Calm - N/A   Scattered Clouds
1:55 AM 59.0 °F - 59.0 °F 100% 30.09 in 10.0 mi Calm Calm - N/A   Clear
2:15 AM 57.2 °F - 57.2 °F 100% 30.08 in 10.0 mi Calm Calm - N/A   Clear
2:35 AM 57.2 °F - 57.2 °F 100% 30.08 in 7.0 mi Calm Calm - N/A   Scattered Clouds
2:55 AM 59.0 °F - 59.0 °F 100% 30.07 in 10.0 mi Calm Calm - N/A   Scattered Clouds
3:15 AM 59.0 °F - 59.0 °F 100% 30.06 in 7.0 mi Calm Calm - N/A   Clear
3:35 AM 59.0 °F - 59.0 °F 100% 30.06 in 7.0 mi Calm Calm - N/A   Clear
3:55 AM 57.2 °F - 55.4 °F 94% 30.06 in 7.0 mi Calm Calm - N/A   Clear
4:15 AM 55.4 °F - 55.4 °F 100% 30.06 in 3.0 mi Calm Calm - N/A   Clear
4:35 AM 55.4 °F - 55.4 °F 100% 30.06 in 5.0 mi Calm Calm - N/A   Clear
4:55 AM 55.4 °F - 55.4 °F 100% 30.06 in 7.0 mi Calm Calm - N/A   Mostly Cloudy
5:15 AM 55.4 °F - 55.4 °F 100% 30.06 in 3.0 mi Calm Calm - N/A   Scattered Clouds
5:35 AM 55.4 °F - 55.4 °F 100% 30.06 in 7.0 mi Calm Calm - N/A   Clear
5:55 AM 53.6 °F - 53.6 °F 100% 30.07 in 1.5 mi Calm Calm - N/A   Mostly Cloudy
6:15 AM 53.6 °F - 53.6 °F 100% 30.07 in 4.0 mi Calm Calm - N/A   Scattered Clouds
6:55 AM 53.6 °F - 53.6 °F 100% 30.07 in 0.5 mi Calm Calm - N/A Fog Fog
7:15 AM 55.4 °F - 55.4 °F 100% 30.07 in 10.0 mi Calm Calm - N/A   Overcast
7:35 AM 59.0 °F - 59.0 °F 100% 30.08 in 10.0 mi Calm Calm - N/A   Mostly Cloudy
7:55 AM 60.8 °F - 60.8 °F 100% 30.08 in 10.0 mi Calm Calm - N/A   Scattered Clouds
8:15 AM 62.6 °F - 60.8 °F 94% 30.07 in 10.0 mi SSE 4.6 mph - N/A   Clear
8:35 AM 62.6 °F - 60.8 °F 94% 30.07 in 10.0 mi SSE 4.6 mph - N/A   Scattered Clouds
8:55 AM 64.4 °F - 60.8 °F 88% 30.06 in 10.0 mi SSE 5.8 mph - N/A   Clear
9:15 AM 66.2 °F - 60.8 °F 83% 30.07 in 10.0 mi South 6.9 mph - N/A   Clear
9:35 AM 69.8 °F - 60.8 °F 73% 30.07 in 10.0 mi South 6.9 mph - N/A   Scattered Clouds
9:55 AM 71.6 °F - 62.6 °F 73% 30.06 in 10.0 mi SSE 8.1 mph - N/A   Clear
10:15 AM 71.6 °F - 60.8 °F 69% 30.04 in 10.0 mi SSE 11.5 mph - N/A   Clear
10:35 AM 73.4 °F - 62.6 °F 69% 30.05 in 10.0 mi SSE 11.5 mph - N/A   Clear
10:55 AM 73.4 °F - 62.6 °F 69% 30.04 in 10.0 mi South 13.8 mph - N/A   Clear
11:15 AM 77.0 °F - 62.6 °F 61% 30.03 in 10.0 mi SSE 11.5 mph 16.1 mph N/A   Scattered Clouds
11:35 AM 77.0 °F - 60.8 °F 57% 30.02 in 10.0 mi SSE 12.7 mph - N/A   Scattered Clouds
11:55 AM 77.0 °F - 60.8 °F 57% 30.01 in 7.0 mi SSE 13.8 mph 19.6 mph N/A   Scattered Clouds
12:15 PM 77.0 °F - 60.8 °F 57% 30.01 in 7.0 mi SSE 15.0 mph 20.7 mph N/A   Mostly Cloudy
12:35 PM 77.0 °F - 60.8 °F 57% 29.98 in 7.0 mi SSE 16.1 mph 23.0 mph N/A   Scattered Clouds
12:55 PM 78.8 °F - 60.8 °F 54% 29.97 in 7.0 mi SSE 13.8 mph 21.9 mph N/A   Scattered Clouds
1:15 PM 78.8 °F - 60.8 °F 54% 29.96 in 7.0 mi SSE 13.8 mph 18.4 mph N/A   Mostly Cloudy
1:35 PM - - - N/A% - - North - - N/A   Unknown
1:55 PM 80.6 °F 81.1 °F 59.0 °F 48% 29.93 in 10.0 mi South 15.0 mph 21.9 mph 0.03 in   Mostly Cloudy
2:15 PM 80.6 °F 81.1 °F 59.0 °F 48% 29.91 in 7.0 mi South 17.3 mph 23.0 mph N/A   Mostly Cloudy
2:35 PM 80.6 °F 80.8 °F 57.2 °F 45% 29.91 in 10.0 mi SSW 13.8 mph 26.5 mph N/A   Mostly Cloudy
2:55 PM 78.8 °F - 57.2 °F 47% 29.91 in 10.0 mi South 12.7 mph 23.0 mph N/A   Mostly Cloudy
3:15 PM 78.8 °F - 57.2 °F 47% 29.91 in 10.0 mi South 10.4 mph 20.7 mph N/A   Overcast
3:35 PM 77.0 °F - 57.2 °F 50% 29.91 in 10.0 mi South 15.0 mph 19.6 mph N/A Rain Light Rain
3:55 PM 78.8 °F - 57.2 °F 47% 29.88 in 10.0 mi South 11.5 mph 17.3 mph N/A Rain Light Rain
4:15 PM 77.0 °F - 59.0 °F 54% 29.89 in 10.0 mi South 11.5 mph 17.3 mph N/A   Overcast
4:35 PM 73.4 °F - 60.8 °F 65% 29.89 in 10.0 mi SSW 8.1 mph - N/A Rain Rain
4:55 PM 73.4 °F - 60.8 °F 65% 29.86 in 10.0 mi South 11.5 mph 16.1 mph N/A   Mostly Cloudy
5:15 PM 75.2 °F - 59.0 °F 57% 29.88 in 10.0 mi South 16.1 mph 21.9 mph N/A   Mostly Cloudy
5:35 PM 75.2 °F - 57.2 °F 53% 29.92 in 7.0 mi SW 9.2 mph 21.9 mph 0.01 in Rain , Thunderstorm Rain
5:55 PM 69.8 °F - 60.8 °F 73% 29.92 in 10.0 mi SSW 8.1 mph - 0.03 in   Overcast
6:15 PM 71.6 °F - 60.8 °F 69% 29.91 in 10.0 mi SSW 5.8 mph - N/A   Mostly Cloudy
6:35 PM 71.6 °F - 62.6 °F 73% 29.91 in 10.0 mi South 9.2 mph - N/A   Scattered Clouds
6:55 PM 69.8 °F - 62.6 °F 78% 29.90 in 10.0 mi SSW 8.1 mph 17.3 mph N/A Rain Light Rain
7:15 PM 68.0 °F - 64.4 °F 88% 29.91 in 10.0 mi SSW 3.5 mph - 0.01 in Rain Light Rain
7:35 PM 68.0 °F - 64.4 °F 88% 29.91 in 10.0 mi Calm Calm - 0.01 in   Overcast
7:55 PM 68.0 °F - 64.4 °F 88% 29.90 in 10.0 mi South 3.5 mph - 0.01 in   Overcast
8:15 PM 68.0 °F - 64.4 °F 88% 29.90 in 10.0 mi SSW 4.6 mph - N/A   Scattered Clouds
8:35 PM 68.0 °F - 64.4 °F 88% 29.91 in 10.0 mi SSW 4.6 mph - N/A   Clear
8:55 PM 68.0 °F - 64.4 °F 88% 29.91 in 10.0 mi SSW 8.1 mph - N/A   Scattered Clouds
9:15 PM 69.8 °F - 64.4 °F 83% 29.91 in 10.0 mi SSW 6.9 mph - N/A   Mostly Cloudy
9:35 PM 68.0 °F - 64.4 °F 88% 29.91 in 10.0 mi SSW 5.8 mph - N/A   Scattered Clouds
9:55 PM 68.0 °F - 62.6 °F 83% 29.91 in 10.0 mi SSW 3.5 mph - N/A   Clear
10:15 PM 68.0 °F - 62.6 °F 83% 29.91 in 10.0 mi Calm Calm - N/A   Clear
11:15 PM 68.0 °F - 62.6 °F 83% 29.92 in 10.0 mi SSW 5.8 mph - N/A   Scattered Clouds